User: anonymous
Location: Unspecified
(0.0000°N, 0.0000°E)
Time: 22:58:30
(UTC+02:00)
Language:

Transit 2A - Orbit

View from above orbital plane
View from above orbital plane
View from above satellite
View from above satellite

Ground track
Ground track

The orbit data is extracted from the following two-line orbital elements,

1 00045U 60007A   14238.10206225  .00000252  00000-0  91680-4 0  2167
2 00045 066.6950 212.3990 0250861 059.2012 011.6830 14.33031530818515
Epoch (UTC): 26 August 2014 02:26:58
Eccentricity: 0.0250861
inclination: 66.6950°
perigee height: 602 km
apogee height: 961 km
right ascension of ascending node: 212.3990°
argument of perigee: 59.2012°
revolutions per day: 14.33031530
mean anomaly at epoch: 11.6830°
orbit number at epoch: 81851

The dashed part of the orbit path shows where the satellite is in the earth's shadow,  

DLR